sat.trackr.live / text

‹ back to catalog

STARLINK-34028

NORAD 63973 · 2025-099X

PAYLOAD ACTIVE UNKNOWN

§ Identity

Operator
Country
US
Launch date
2025-05-13
Launch site
AFETR
Launch vehicle
Mass (kg)
RCS (m²)

Purposes: comms

External: N2YO · Heavens-Above · Gunter

§ Orbital elements

Epoch: 2026-05-24T23:53:24.478944Z

Period
94.27 min
Inclination
43.0004°
Eccentricity
0.0000396
Mean motion
15.27595211 rev/d
Perigee alt
482.7 km
Apogee alt
483.3 km
Semi-major
6,861.1 km
B*
5.0640e-4
RAAN
102.0411°
Arg perigee
290.7193°
Mean anomaly
69.3617°
Rev number
5,904

§ Raw data

STARLINK-340281 63973U 25099X   26144.99542221  .00013705  00000+0  50640-3 0  99972 63973  43.0004 102.0411 0000396 290.7193  69.3617 15.27595211 59047

JSON: /api/v1/satellites/63973 · /tle

For live sub-satellite position, see the globe view (requires WebGL).

§ Visibility from observer

Set your observer location to see the next 7 days of passes ≥ 10°. The values pass through the URL so the page stays shareable.

No JS? Fill the form by hand. The geolocation button needs JavaScript.